This is the latest recevied weather packets stored in our database for station/object KG5VSR. If no packets are shown the sender has not sent any weather packets the latest 10 day(s).
| Time | Temp. | Humidity | Pressure | Rain* | Wind** | Luminosity | Snow |
|---|---|---|---|---|---|---|---|
| 1777395763 | 26.11° C | 91% | 1013.1 hPa | 0 mm | - | 268 W/m² | - |
| 1777393959 | 26.11° C | 91% | 1013.5 hPa | 0 mm | - | 161 W/m² | - |
| 1777392157 | 25.56° C | 92% | 1013.2 hPa | 0 mm | - | 158 W/m² | - |
| 1777390351 | 25.56° C | 94% | 1013.1 hPa | 0 mm | - | 112 W/m² | - |
| 1777388550 | 25° C | 96% | 1012.5 hPa | 0 mm | - | 67 W/m² | - |
| 1777386748 | 25° C | 95% | 1012.6 hPa | 0 mm | - | 111 W/m² | - |
| 1777384945 | 24.44° C | 95% | 1012.4 hPa | 0 mm | - | 57 W/m² | - |
| 1777383145 | 24.44° C | 95% | 1012.4 hPa | 0 mm | - | 28 W/m² | - |
| 1777381344 | 24.44° C | 94% | 1011.9 hPa | 0 mm | - | 70 W/m² | - |
| 1777379540 | 24.44° C | 94% | 1011.7 hPa | 0 mm | - | 9 W/m² | - |
| 1777377740 | 24.44° C | 95% | 1011.2 hPa | 0 mm | - | 9 W/m² | - |
| 1777375939 | 24.44° C | 94% | 1011.1 hPa | 0 mm | - | 0 W/m² | - |
| 1777374139 | 24.44° C | 93% | 1010.7 hPa | 0 mm | - | 0 W/m² | - |
| 1777372335 | 25° C | 92% | 1010.8 hPa | 0 mm | - | 0 W/m² | - |
| 1777370533 | 25° C | 93% | 1011.5 hPa | 0 mm | - | 0 W/m² | - |
| 1777368733 | 25° C | 94% | 1011.1 hPa | 0 mm | - | 0 W/m² | - |
| 1777366931 | 25° C | 95% | 1010.8 hPa | 0 mm | - | 0 W/m² | - |
| 1777365130 | 25° C | 94% | 1010.9 hPa | 0 mm | - | 0 W/m² | - |
| 1777363328 | 25° C | 95% | 1011 hPa | 0 mm | - | 0 W/m² | - |
| 1777361523 | 25° C | 95% | 1010.5 hPa | 0 mm | - | 0 W/m² | - |
| 1777359718 | 25° C | 97% | 1010.7 hPa | 0 mm | - | 0 W/m² | - |
| 1777357914 | 24.44° C | 99% | 1011.1 hPa | 0 mm | - | 0 W/m² | - |
| 1777356113 | 24.44° C | 99% | 1011.2 hPa | 0 mm | - | 0 W/m² | - |
| 1777354309 | 23.89° C | 99% | 1011.3 hPa | 0 mm | - | 0 W/m² | - |
| 1777352507 | 23.89° C | 99% | 1011.6 hPa | 0 mm | - | 0 W/m² | - |
* Rain latest hour (hover to see other rain measurements)
** Current wind speed in m/s (hover to see current wind gust speed)